Torna al catalogo

STARLINK-37293

AttivoComunicazioniVLEO
NORAD 68978·PAYLOAD·🇺🇸 United States

Lanciato May 1, 2026 da Cape Canaveral Space Force Station

Loading…

Prossimi Passaggi (prossime 24 ore)

TLE

AggiornatoSource: CelesTrak SupGP

Epoca: Sep 14, 2026, 22:59 UTC

1 68978C 26099AD  26257.95812500 -.00102020  00000+0 -30153-2 0  2573
2 68978  53.1569 101.3548 0001262  82.6406  83.5415 15.34428625    15

Traccia STARLINK-37293 in tempo reale con AllMySat

Download on the App Store